| time (UTC) | temp F | wind direction | speed MPH | gust MPH | rain 1hr in | rain 24hr in | rain mn in | humidity % | barometer mb |
| 20260504043003 | 55 | 220 | 3.0 | 0.0 | 0.00 | 0.00 | 0.00 | 66 | 1012.0 |
| 20260504041504 | 55 | 220 | 3.0 | 0.0 | 0.00 | 0.00 | 0.00 | 66 | 1012.0 |
| 20260504040004 | 55 | 250 | 7.0 | 0.0 | 0.00 | 0.00 | 0.00 | 66 | 1012.0 |
| 20260504034504 | 55 | 250 | 7.0 | 0.0 | 0.00 | 0.00 | 0.00 | 66 | 1012.0 |
| 20260504031504 | 55 | 240 | 3.0 | 0.0 | 0.00 | 0.00 | 0.00 | 66 | 1012.0 |
| 20260504030004 | 57 | 170 | 5.0 | 0.0 | 0.00 | 0.00 | 0.00 | 62 | 1012.0 |
| 20260504024503 | 57 | 170 | 5.0 | 0.0 | 0.00 | 0.00 | 0.00 | 62 | 1012.0 |
| 20260504021504 | 55 | 180 | 1.0 | 0.0 | 0.00 | 0.00 | 0.00 | 66 | 1012.0 |
| 20260504020004 | 55 | 180 | 1.0 | 0.0 | 0.00 | 0.00 | 0.00 | 66 | 1012.0 |
| 20260504011503 | 59 | 220 | 5.0 | 0.0 | 0.00 | 0.00 | 0.00 | 58 | 1013.0 |
| 20260504010004 | 59 | 190 | 6.0 | 0.0 | 0.00 | 0.00 | 0.00 | 58 | 1013.0 |
| 20260504001504 | 59 | 170 | 6.0 | 0.0 | 0.00 | 0.00 | 0.00 | 58 | 1013.0 |
| 20260504000005 | 61 | 180 | 6.0 | 0.0 | 0.00 | 0.00 | 0.00 | 55 | 1013.0 |
| 20260503231503 | 61 | 190 | 6.0 | 0.0 | 0.00 | 0.00 | 0.00 | 51 | 1013.0 |
| 20260503230004 | 63 | 230 | 8.0 | 0.0 | 0.00 | 0.00 | 0.00 | 48 | 1013.0 |
| 20260503223004 | 63 | 220 | 7.0 | 0.0 | 0.00 | 0.00 | 0.00 | 48 | 1013.0 |
| 20260503221504 | 63 | 220 | 7.0 | 0.0 | 0.00 | 0.00 | 0.00 | 48 | 1013.0 |
| 20260503220006 | 63 | 230 | 7.0 | 0.0 | 0.00 | 0.00 | 0.00 | 48 | 1013.0 |
| 20260503214504 | 63 | 230 | 7.0 | 0.0 | 0.00 | 0.00 | 0.00 | 48 | 1013.0 |
| 20260503211504 | 63 | 240 | 7.0 | 0.0 | 0.00 | 0.00 | 0.00 | 48 | 1012.0 |
| 20260503204504 | 63 | 250 | 8.0 | 0.0 | 0.00 | 0.00 | 0.00 | 51 | 1012.0 |
| 20260503203004 | 63 | 250 | 9.0 | 0.0 | 0.00 | 0.00 | 0.00 | 55 | 1012.0 |
| 20260503194504 | 64 | 260 | 9.0 | 0.0 | 0.00 | 0.00 | 0.00 | 52 | 1011.0 |
| 20260503193005 | 64 | 250 | 12.0 | 0.0 | 0.00 | 0.00 | 0.00 | 48 | 1011.0 |
| 20260503190004 | 66 | 240 | 15.0 | 0.0 | 0.00 | 0.00 | 0.00 | 48 | 1011.0 |
| 20260503184504 | 66 | 240 | 15.0 | 0.0 | 0.00 | 0.00 | 0.00 | 48 | 1011.0 |
| 20260503183004 | 68 | 250 | 14.0 | 0.0 | 0.00 | 0.00 | 0.00 | 45 | 1011.0 |
| 20260503180004 | 68 | 250 | 14.0 | 0.0 | 0.00 | 0.00 | 0.00 | 45 | 1011.0 |
| 20260503174503 | 68 | 250 | 14.0 | 0.0 | 0.00 | 0.00 | 0.00 | 45 | 1011.0 |
| 20260503173004 | 68 | 230 | 15.0 | 0.0 | 0.00 | 0.00 | 0.00 | 45 | 1011.0 |
| 20260503171504 | 68 | 230 | 15.0 | 0.0 | 0.00 | 0.00 | 0.00 | 45 | 1011.0 |
| 20260503081504 | 55 | 0 | 2.0 | 0.0 | 0.00 | 0.00 | 0.00 | 100 | 1014.0 |
| 20260503054503 | 54 | 340 | 5.0 | 0.0 | 0.00 | 0.00 | 0.00 | 100 | 1014.0 |
| 20260503053004 | 52 | 360 | 1.0 | 0.0 | 0.00 | 0.00 | 0.00 | 100 | 1014.0 |
| 20260503044504 | 54 | 360 | 1.0 | 0.0 | 0.00 | 0.00 | 0.00 | 100 | 1014.0 |